Location: Bucharest
(44.4268°N, 26.1025°E)
Time: 11:39:20
(UTC+03:00)

AO-7 - Visible Passes

Search period start: 01 July 2022 00:00
Search period end: 11 July 2022 00:00
Orbit: 1439 x 1459 km, 101.9° (Epoch: 30 June)

Date Brightness Start Highest point End Pass type
(mag) Time Alt. Az. Time Alt. Az. Time Alt. Az.
01 Jul ? 04:51:09 10° NNE 04:58:36 35° E 05:06:00 10° SSE visible
02 Jul ? 03:53:55 10° ENE 03:57:40 13° E 04:01:23 10° ESE visible
03 Jul ? 04:44:15 10° NE 04:51:28 31° E 04:58:39 10° SSE visible
04 Jul ? 03:47:49 10° ENE 03:50:27 12° E 03:53:04 10° ESE visible
05 Jul ? 04:37:23 10° NE 04:44:20 28° E 04:51:14 10° SSE visible
07 Jul ? 04:30:32 10° NE 04:37:11 25° E 04:43:47 10° SE visible
09 Jul ? 04:23:44 10° NE 04:30:01 23° E 04:36:16 10° SE visible
